[[{"header":{"parameterUnit":"m.s-1","parameterCategory":2,"la1":30.2992,"la2":30.254,"lo1":-89.0895,"lo2":-89.0443,"dy":0.0025,"dx":0.0025,"nx":19,"ny":19,"refTime":"2026-04-25T09:00:00:Z","depth":"0","parameterNumber":2,"parameterNumberName":"U-component_of_CURRENTS"},"data":[0,0,0,0.3501,0.3504,0.36,0.36,0.3556,0.3556,0,0,0,0,0,0,0,0,0,0,0,0.3456,0.3457,0.3501,0.3504,0.36,0.36,0.3556,0.3556,0,0,0,0,0,0,0,0,0,0,0,0.3456,0.3457,0.3459,0.3505,0.36,0.36,0.3556,0.3518,0,0,0,0,0,0,0,0,0,0,0.3443,0.344,0.3457,0.3459,0.3506,0.36,0.36,0.3518,0.3521,0.3475,0,0.351,0,0.3547,0.3552,0.3551,0,0,0,0.3475,0.3438,0.3468,0.3459,0.3507,0.36,0.3548,0.3521,0.3523,0.3478,0.351,0.351,0.3546,0.3551,0.3551,0.3762,0.3765,0,0,0.3469,0.346,0.3467,0.3471,0.3555,0.3545,0.3552,0.3524,0.3529,0.351,0.351,0.3546,0.3551,0.355,0.376,0.3763,0,0,0,0.3474,0.3457,0.349,0.3471,0.3511,0.3549,0.3556,0.353,0.3544,0.351,0.3545,0.355,0.355,0.3757,0.3761,0.3865,0,0,0,0.347,0.3462,0.3488,0.3481,0.3513,0.3547,0.3563,0.3546,0.3545,0.3545,0.355,0.3549,0.3754,0.3759,0.3855,0.3795,0,0,0,0.3448,0.346,0.3479,0.3481,0.3538,0.3549,0.3561,0.3547,0.3566,0.3551,0.3549,0.3751,0.3758,0.3847,0.3785,0.3847,0,0,0,0.342,0.349,0.3479,0.3572,0.3538,0.3677,0.3562,0.3639,0.3647,0.355,0.3754,0.376,0.3844,0.378,0.3842,0.378,0.3801,0,0,0.3497,0.3499,0.3557,0.3551,0.3681,0.366,0.3802,0.3748,0.3732,0.3737,0.3743,0.3859,0.3785,0.3846,0.4159,0.4168,0,0,0,0.3574,0.3601,0.365,0.3713,0.3802,0.3843,0.386,0.3896,0.3955,0.3773,0.3964,0.3914,0.3948,0.3904,0.3915,0.3807,0.3791,0.379,0.379,0.362,0.3664,0.3746,0.3809,0.3889,0.399,0.4048,0.4101,0.4089,0.4189,0.4082,0.4297,0.4264,0.4267,0.4163,0.4234,0.4234,0.4234,0.4235,0.3687,0.3701,0.3761,0.384,0.3905,0.4002,0.416,0.4206,0.4335,0.4308,0.434,0.4118,0.4283,0.4168,0.4243,0.4242,0.4241,0.424,0.4239,0.3658,0.3661,0.3709,0.3777,0.3847,0.3962,0.4072,0.4216,0.4351,0.4414,0.4364,0.4361,0.4175,0.446,0.446,0.4461,0.4461,0.4461,0.4461,0.3574,0.3626,0.3631,0.3707,0.3726,0.3816,0.4026,0.4153,0.4334,0.4418,0.4419,0.4266,0.4364,0.4258,0.4463,0.4462,0.4462,0.4462,0.4462,0.3492,0.3516,0.3515,0.3529,0.359,0.3597,0.3854,0.4079,0.4256,0.4324,0.431,0.4442,0.437,0.4362,0.4259,0.4452,0.4452,0.4452,0.4452,0.341,0.3433,0.3394,0.3378,0.3404,0.3487,0.3554,0.3809,0.409,0.417,0.425,0.4205,0.421,0.4125,0.4123,0.4014,0.414,0.4139,0.4139,0.3339,0.3344,0.3272,0.3273,0.3284,0.3327,0.3291,0.3383,0.3816,0.4117,0.412,0.4134,0.4058,0.4074,0.3931,0.3936,0.3753,0,0]},{"header":{"parameterUnit":"m.s-1","parameterCategory":2,"la1":30.2992,"la2":30.254,"lo1":-89.0895,"lo2":-89.0443,"dy":0.0025,"dx":0.0025,"nx":19,"ny":19,"refTime":"2026-04-25T09:00:00:Z","depth":"0","parameterNumber":3,"parameterNumberName":"V-component_of_CURRENTS"},"data":[0,0,0,0.0384,0.0383,0.0304,0.0303,0.0147,0.0146,0,0,0,0,0,0,0,0,0,0,0,0.04,0.04,0.0384,0.0383,0.0304,0.0303,0.0147,0.0146,0,0,0,0,0,0,0,0,0,0,0,0.04,0.04,0.04,0.0383,0.0304,0.0303,0.0148,0.0213,0,0,0,0,0,0,0,0,0,0,0.0293,0.0318,0.04,0.04,0.0383,0.0305,0.0303,0.0216,0.0209,0.0179,0,0.0183,0,0.0181,0.0138,0.0137,0,0,0,0.0348,0.0325,0.0322,0.04,0.0383,0.0305,0.033,0.0212,0.0204,0.0169,0.0181,0.0176,0.0178,0.0137,0.0136,0.0209,0.0211,0,0,0.0352,0.036,0.0328,0.0318,0.0383,0.0333,0.0328,0.0207,0.0195,0.018,0.0172,0.0175,0.0136,0.0135,0.0208,0.021,0,0,0,0.0389,0.0363,0.0363,0.0323,0.0325,0.0331,0.0326,0.0199,0.0206,0.0171,0.0174,0.0135,0.0134,0.0206,0.0208,0.0335,0,0,0,0.039,0.0387,0.0365,0.0365,0.0328,0.0267,0.032,0.0213,0.02,0.0174,0.0135,0.0132,0.0204,0.0207,0.0327,0.0379,0,0,0,0.04,0.0387,0.0389,0.0366,0.0352,0.027,0.0266,0.021,0.0203,0.0137,0.0132,0.0202,0.0206,0.0321,0.0368,0.0471,0,0,0,0.0393,0.0414,0.0389,0.0411,0.0353,0.0387,0.0267,0.0259,0.0219,0.0135,0.0204,0.0208,0.0318,0.0361,0.0464,0.0554,0.0594,0,0,0.0423,0.0417,0.0434,0.0412,0.0453,0.0394,0.044,0.0327,0.0273,0.0228,0.0229,0.033,0.0367,0.047,0.0794,0.0826,0,0,0,0.0447,0.0458,0.0469,0.0478,0.0494,0.051,0.0433,0.0431,0.0414,0.0274,0.0379,0.04,0.0459,0.0501,0.0528,0.0341,0.0227,0.0227,0.0226,0.0493,0.0497,0.0538,0.0552,0.0576,0.0588,0.0615,0.0603,0.052,0.0573,0.054,0.0754,0.0803,0.0824,0.0631,0.0584,0.0584,0.0585,0.0585,0.0564,0.0594,0.0597,0.0636,0.0664,0.0702,0.0761,0.0746,0.0822,0.0727,0.0779,0.0678,0.0861,0.0645,0.0594,0.0592,0.0591,0.059,0.059,0.0619,0.0632,0.0645,0.0699,0.0758,0.079,0.0951,0.0958,0.0941,0.1002,0.1037,0.1034,0.0809,0.103,0.103,0.1031,0.1032,0.1032,0.1033,0.0666,0.0681,0.0733,0.0779,0.0836,0.0953,0.1083,0.1178,0.1236,0.12,0.12,0.0889,0.0889,0.0832,0.1044,0.1042,0.1041,0.104,0.1039,0.0723,0.0728,0.0817,0.0878,0.104,0.127,0.1355,0.155,0.1582,0.1622,0.1207,0.1309,0.1274,0.1252,0.1204,0.15,0.15,0.15,0.15,0.0756,0.0767,0.0902,0.1043,0.1242,0.143,0.1809,0.192,0.1672,0.1477,0.1289,0.1172,0.1162,0.111,0.109,0.1035,0.1281,0.128,0.1279,0.0789,0.0829,0.0949,0.1094,0.1333,0.1652,0.2048,0.221,0.1688,0.1243,0.1015,0.1024,0.0815,0.0813,0.0694,0.0682,0.0576,0,0]}],[{"header":{"parameterUnit":"m.s-1","parameterCategory":2,"la1":30.2992,"la2":30.254,"lo1":-89.0895,"lo2":-89.0443,"dy":0.0025,"dx":0.0025,"nx":19,"ny":19,"refTime":"2026-04-25T09:00:00:Z","depth":"2","parameterNumber":2,"parameterNumberName":"U-component_of_CURRENTS"},"data":[0,0,0,0.2885,0.2884,0.2837,0.2836,0.284,0.284,0,0,0,0,0,0,0,0,0,0,0,0.2887,0.2887,0.2885,0.2884,0.2837,0.2836,0.284,0.284,0,0,0,0,0,0,0,0,0,0,0,0.2888,0.2887,0.2886,0.2884,0.2837,0.2836,0.284,0.2859,0,0,0,0,0,0,0,0,0,0,0.2897,0.2948,0.2887,0.2886,0.2884,0.2837,0.2836,0.286,0.2858,0.2881,0,0.2859,0,0.2859,0.2842,0.2842,0,0,0,0.2882,0.2949,0.2882,0.2886,0.2883,0.2837,0.2858,0.2858,0.2857,0.2879,0.2859,0.286,0.2859,0.2843,0.2843,0.3103,0.3106,0,0,0.2885,0.2937,0.2882,0.288,0.2854,0.2859,0.2856,0.2857,0.2883,0.2859,0.286,0.2859,0.2843,0.2843,0.3101,0.3104,0,0,0,0.2894,0.2939,0.2871,0.288,0.2871,0.2858,0.2854,0.2883,0.2844,0.286,0.2859,0.2843,0.2843,0.3098,0.3102,0.3276,0,0,0,0.2895,0.2943,0.2872,0.2911,0.287,0.2884,0.2882,0.2843,0.2844,0.2859,0.2843,0.2843,0.3095,0.31,0.3265,0.3267,0,0,0,0.2892,0.2946,0.292,0.2912,0.2887,0.2882,0.2846,0.2843,0.2844,0.2842,0.2844,0.3093,0.3099,0.3255,0.3254,0.3328,0,0,0,0.2972,0.2973,0.2922,0.2985,0.2887,0.2953,0.2846,0.2928,0.295,0.2843,0.3095,0.3102,0.3252,0.3245,0.332,0.3099,0.3118,0,0,0.3014,0.2981,0.3028,0.2981,0.3008,0.296,0.31,0.3078,0.3053,0.3091,0.3097,0.3269,0.3253,0.3326,0.3463,0.347,0,0,0,0.3074,0.3057,0.3081,0.3091,0.3126,0.316,0.3166,0.3238,0.3334,0.309,0.3349,0.3333,0.3373,0.3227,0.3236,0.3132,0.3131,0.313,0.313,0.3084,0.3112,0.3152,0.3163,0.3238,0.3333,0.3427,0.3517,0.3489,0.3625,0.3538,0.3789,0.3645,0.3646,0.3648,0.3649,0.365,0.365,0.3651,0.3076,0.308,0.3156,0.3201,0.3283,0.3425,0.364,0.3705,0.3882,0.3833,0.3865,0.3496,0.3663,0.3666,0.3663,0.3661,0.366,0.3658,0.3657,0.3028,0.3023,0.3084,0.3153,0.3295,0.3462,0.3649,0.3823,0.3982,0.4053,0.3845,0.3838,0.3797,0.4076,0.4076,0.4077,0.4077,0.4077,0.4078,0.2934,0.2977,0.3011,0.31,0.3184,0.3365,0.3668,0.3821,0.3951,0.3978,0.3976,0.393,0.3916,0.3822,0.4085,0.4084,0.4083,0.4082,0.4081,0.2817,0.2872,0.2911,0.2969,0.3125,0.3186,0.3475,0.3682,0.3858,0.3876,0.3935,0.3936,0.3828,0.3817,0.3722,0.3943,0.3943,0.3943,0.3943,0.2736,0.2762,0.284,0.2905,0.2987,0.3107,0.3117,0.3184,0.3438,0.3465,0.3485,0.3343,0.336,0.3216,0.3219,0.3107,0.3169,0.3167,0.3166,0.2647,0.2717,0.2743,0.2847,0.2923,0.2987,0.2823,0.2592,0.2778,0.3131,0.3308,0.3899,0.3741,0.3748,0.356,0.3553,0.3386,0,0]},{"header":{"parameterUnit":"m.s-1","parameterCategory":2,"la1":30.2992,"la2":30.254,"lo1":-89.0895,"lo2":-89.0443,"dy":0.0025,"dx":0.0025,"nx":19,"ny":19,"refTime":"2026-04-25T09:00:00:Z","depth":"2","parameterNumber":3,"parameterNumberName":"V-component_of_CURRENTS"},"data":[0,0,0,0.0018,0.0017,-0.0074,-0.0075,-0.0193,-0.0194,0,0,0,0,0,0,0,0,0,0,0,0.0037,0.0037,0.0018,0.0017,-0.0074,-0.0075,-0.0193,-0.0194,0,0,0,0,0,0,0,0,0,0,0,0.0038,0.0037,0.0037,0.0016,-0.0074,-0.0075,-0.0193,-0.0131,0,0,0,0,0,0,0,0,0,0,-0.0045,-0.0011,0.0037,0.0037,0.0016,-0.0074,-0.0075,-0.0128,-0.0135,-0.0144,0,-0.0148,0,-0.0156,-0.0199,-0.02,0,0,0,-0.0012,-0.0006,-0.0027,0.0037,0.0016,-0.0073,-0.0041,-0.0132,-0.0139,-0.0152,-0.015,-0.0154,-0.0158,-0.02,-0.02,-0.0216,-0.0216,0,0,-0.0007,0.0014,-0.0022,-0.0032,0.0005,-0.0038,-0.0044,-0.0137,-0.014,-0.015,-0.0157,-0.016,-0.02,-0.0201,-0.0217,-0.0216,0,0,0,0.0027,0.0018,-0.0003,-0.0027,-0.0033,-0.004,-0.0046,-0.0137,-0.0142,-0.0158,-0.0161,-0.0201,-0.0202,-0.0217,-0.0217,-0.0042,0,0,0,0.0028,0.004,0.0,0.0011,-0.0031,-0.0083,-0.0044,-0.0137,-0.0147,-0.0161,-0.0201,-0.0203,-0.0218,-0.0217,-0.0048,0.0047,0,0,0,0.0039,0.0041,0.0035,0.0012,-0.0012,-0.0082,-0.0095,-0.014,-0.0147,-0.02,-0.0203,-0.0218,-0.0217,-0.0053,0.0037,0.0152,0,0,0,0.0057,0.0056,0.0035,0.0039,-0.0011,-0.0043,-0.0094,-0.0128,-0.0167,-0.0201,-0.0218,-0.0217,-0.0055,0.0031,0.0145,0.0161,0.0195,0,0,0.0066,0.0058,0.0061,0.0042,0.0014,-0.0034,-0.0026,-0.0095,-0.0155,-0.0194,-0.0195,-0.0046,0.0037,0.015,0.0219,0.0251,0,0,0,0.0072,0.0067,0.0054,0.004,0.0012,0.0024,-0.0045,-0.0035,-0.0042,-0.0167,-0.0075,-0.0029,0.0038,0.0032,0.0057,-0.0212,-0.0212,-0.0212,-0.0212,0.0089,0.0081,0.0083,0.0071,0.0066,0.0057,0.0097,0.0096,0.0013,0.006,0.0092,0.0268,0.0261,0.0281,0.0054,0.0055,0.0055,0.0056,0.0056,0.0116,0.014,0.0132,0.0141,0.0162,0.0193,0.0257,0.026,0.0356,0.0245,0.0301,0.0188,0.0319,0.0069,0.0067,0.0065,0.0064,0.0063,0.0062,0.0164,0.0176,0.0187,0.0222,0.0297,0.033,0.0523,0.0539,0.0523,0.0592,0.055,0.0546,0.0409,0.0608,0.0609,0.061,0.0611,0.0612,0.0612,0.0226,0.0227,0.0282,0.0317,0.0394,0.0552,0.0707,0.0823,0.084,0.0754,0.0753,0.0455,0.0437,0.0439,0.0627,0.0624,0.0622,0.0621,0.062,0.0284,0.0297,0.0384,0.0453,0.064,0.0897,0.0992,0.1173,0.1196,0.1207,0.0843,0.0832,0.0784,0.076,0.0768,0.103,0.103,0.103,0.103,0.0335,0.0339,0.0508,0.0661,0.0869,0.1072,0.1403,0.1395,0.1248,0.1048,0.1047,0.0906,0.089,0.0836,0.081,0.0814,0.1089,0.1089,0.1089,0.0368,0.0424,0.0585,0.0746,0.0987,0.1314,0.1618,0.1538,0.1175,0.1087,0.1013,0.1043,0.0824,0.0804,0.07,0.0667,0.0664,0,0]}],[{"header":{"parameterUnit":"m.s-1","parameterCategory":2,"la1":30.2992,"la2":30.254,"lo1":-89.0895,"lo2":-89.0443,"dy":0.0025,"dx":0.0025,"nx":19,"ny":19,"refTime":"2026-04-25T09:00:00:Z","depth":"4","parameterNumber":2,"parameterNumberName":"U-component_of_CURRENTS"},"data":[0,0,0,0.1122,0.1127,0.1339,0.1339,0.154,0.1542,0,0,0,0,0,0,0,0,0,0,0,0.1047,0.105,0.1121,0.1128,0.1339,0.1339,0.154,0.1542,0,0,0,0,0,0,0,0,0,0,0,0.1046,0.1049,0.1052,0.1129,0.1339,0.1339,0.1539,0.1389,0,0,0,0,0,0,0,0,0,0,0.1189,0.1134,0.1048,0.1052,0.1131,0.1339,0.1339,0.1382,0.1398,0.1436,0,0.1504,0,0.1546,0.1557,0.1558,0,0,0,0.1092,0.1121,0.1196,0.1053,0.1133,0.1339,0.1234,0.1391,0.141,0.1457,0.1507,0.1515,0.155,0.1559,0.156,0.1744,0.1744,0,0,0.1081,0.106,0.1184,0.1209,0.1235,0.1227,0.1241,0.1403,0.143,0.1508,0.1521,0.1553,0.156,0.1562,0.1744,0.1744,0,0,0,0.1071,0.1052,0.1123,0.1199,0.1255,0.1234,0.125,0.1421,0.1453,0.1523,0.1555,0.1562,0.1564,0.1743,0.1744,0.1718,0,0,0,0.1062,0.105,0.1119,0.1104,0.1253,0.135,0.1265,0.144,0.1461,0.1554,0.1562,0.1567,0.1743,0.1744,0.1718,0.1821,0,0,0,0.1029,0.1045,0.1088,0.1104,0.1214,0.1349,0.1386,0.1445,0.1482,0.1558,0.1567,0.1743,0.1744,0.1718,0.1818,0.1922,0,0,0,0.0972,0.0975,0.1088,0.1096,0.1213,0.1318,0.1385,0.1484,0.1549,0.1563,0.1743,0.1744,0.1718,0.1816,0.1918,0.1611,0,0,0,0.0911,0.0968,0.0961,0.1066,0.1087,0.1284,0.1322,0.1452,0.1569,0.1678,0.1683,0.1718,0.1818,0.1921,0.1657,0,0,0,0,0.0895,0.0899,0.0922,0.0985,0.1111,0.1249,0.1381,0.1473,0.1626,0.1623,0.1741,0.1808,0.1872,0.1681,0.1748,0.1747,0.1747,0.1747,0.1747,0.0684,0.0767,0.079,0.0908,0.1009,0.1231,0.1365,0.1537,0.1592,0.1672,0.1797,0.1891,0.1681,0.1752,0.1751,0.1751,0.1751,0.1751,0.1751,0.0551,0.0598,0.0737,0.0814,0.1012,0.115,0.1428,0.1536,0.1778,0.178,0.184,0.1679,0.1749,0.175,0.175,0.175,0.175,0.175,0.1751,0.0431,0.0497,0.0582,0.0737,0.0965,0.1215,0.145,0.1709,0.1882,0.1967,0.1844,0.1951,0.1946,0.2016,0.2017,0.2018,0.2018,0.2019,0.202,0.032,0.0413,0.0494,0.0687,0.0842,0.1136,0.1555,0.1694,0.1942,0.1899,0.2044,0.1985,0.1976,0.1967,0.2033,0.203,0.2029,0.2028,0.2027,0.0248,0.0294,0.0374,0.049,0.0783,0.0955,0.1346,0.1623,0.1761,0.1809,0.1839,0.1844,0.1871,0.1868,0.1854,0.1891,0.1887,0.1883,0,0.0186,0.0213,0.0304,0.0417,0.058,0.0856,0.1008,0.123,0.153,0.1523,0.1711,0.1736,0.1741,0.1753,0.1746,0.1719,0,0,0,0.0144,0.0176,0.0211,0.033,0.0504,0.0796,0.106,0.1123,0.1511,0.1519,0.1794,0.1817,0.1716,0.2073,0.2131,0.2121,0.2112,0,0]},{"header":{"parameterUnit":"m.s-1","parameterCategory":2,"la1":30.2992,"la2":30.254,"lo1":-89.0895,"lo2":-89.0443,"dy":0.0025,"dx":0.0025,"nx":19,"ny":19,"refTime":"2026-04-25T09:00:00:Z","depth":"4","parameterNumber":3,"parameterNumberName":"V-component_of_CURRENTS"},"data":[0,0,0,-0.0055,-0.0056,-0.0135,-0.0135,-0.0212,-0.0212,0,0,0,0,0,0,0,0,0,0,0,-0.0017,-0.0017,-0.0054,-0.0056,-0.0135,-0.0135,-0.0212,-0.0212,0,0,0,0,0,0,0,0,0,0,0,-0.0017,-0.0017,-0.0018,-0.0057,-0.0135,-0.0135,-0.0211,-0.0158,0,0,0,0,0,0,0,0,0,0,-0.0085,-0.0056,-0.0017,-0.0018,-0.0057,-0.0135,-0.0135,-0.0156,-0.0161,-0.0169,0,-0.0176,0,-0.02,-0.0217,-0.0217,0,0,0,-0.0057,-0.0051,-0.0072,-0.0018,-0.0058,-0.0135,-0.01,-0.0159,-0.0166,-0.0176,-0.0177,-0.018,-0.0201,-0.0217,-0.0218,-0.0342,-0.0342,0,0,-0.0052,-0.0034,-0.0067,-0.0076,-0.0071,-0.0097,-0.0102,-0.0163,-0.0166,-0.0177,-0.0183,-0.0203,-0.0218,-0.0218,-0.0341,-0.0342,0,0,0,-0.004,-0.0031,-0.0051,-0.0072,-0.0091,-0.0099,-0.0105,-0.0164,-0.017,-0.0184,-0.0204,-0.0218,-0.0219,-0.034,-0.0341,-0.0224,0,0,0,-0.0037,-0.0024,-0.0049,-0.0039,-0.0089,-0.0133,-0.0104,-0.0165,-0.0174,-0.0203,-0.0218,-0.022,-0.0339,-0.0341,-0.0225,-0.0099,0,0,0,-0.0015,-0.0022,-0.0028,-0.0038,-0.0073,-0.0132,-0.0143,-0.0168,-0.0186,-0.0217,-0.022,-0.0338,-0.034,-0.0226,-0.0105,-0.0098,0,0,0,0.0002,0.0061,-0.0028,0.0016,-0.0072,-0.0105,-0.0143,-0.0191,-0.022,-0.0219,-0.0339,-0.0341,-0.0226,-0.0108,-0.0101,-0.0048,0,0,0,0.0104,0.0073,0.0099,0.0019,0.006,-0.0095,-0.0082,-0.0148,-0.0256,-0.0315,-0.0318,-0.0225,-0.0105,-0.0099,-0.0172,0,0,0,0,0.015,0.0182,0.0166,0.0164,0.0084,0.005,-0.0068,-0.0161,-0.0267,-0.0283,-0.03,-0.0228,-0.0227,-0.0211,-0.0351,-0.0351,-0.035,-0.035,-0.035,0.0355,0.0314,0.036,0.0309,0.027,0.0133,0.007,-0.0083,-0.0212,-0.0289,-0.0191,-0.0173,-0.0161,-0.03,-0.03,-0.0299,-0.0299,-0.0299,-0.0298,0.0497,0.0499,0.0482,0.0517,0.0457,0.0432,0.0226,0.0102,-0.0049,-0.0172,-0.0181,-0.016,-0.0289,-0.0291,-0.0292,-0.0293,-0.0294,-0.0295,-0.0295,0.0554,0.0553,0.0593,0.0639,0.069,0.0588,0.0533,0.0354,0.0108,0.0088,0.0014,-0.0098,-0.004,0.0027,0.0027,0.0028,0.0028,0.0029,0.0029,0.0563,0.0605,0.0679,0.0744,0.08,0.0809,0.0677,0.0557,0.0334,0.0192,0.0104,-0.0063,-0.0074,-0.0026,0.0038,0.0036,0.0035,0.0034,0.0034,0.056,0.0604,0.0699,0.078,0.0898,0.0893,0.0838,0.0645,0.0516,0.0387,0.0211,0.02,0.0172,0.0156,0.0212,0.0349,0.035,0.0351,0,0.056,0.0583,0.0722,0.0836,0.0897,0.093,0.0801,0.0684,0.0476,0.0468,0.0431,0.0237,0.0226,0.0194,0.0181,0.0247,0,0,0,0.0554,0.0609,0.0689,0.0819,0.0899,0.0817,0.0755,0.068,0.056,0.0475,0.0376,0.0369,0.0201,0.0064,-0.0007,-0.002,0.0055,0,0]}]]